Simultaneous Nadir Overpasses (SNOs) Predictions

Prediction of SNOs between GOES-14 and NOAA-20 Satellite Orbit:

Table of predicted SNOs for the next 14.0 days since TLE Epoch: 9/13/2019
Index Date Time (GOES-14) GOES-14 Lat,Lon NOAA-20 Lat,Lon Distance(km) Time Diff (sec)
1 09/14/2019 20:16:35 -0.34,-104.30 -0.00,-102.65 187.44 80
2 09/16/2019 08:38:23 0.33,-104.22 1.18,-107.93 422.73 80
3 09/17/2019 08:16:58 0.34,-104.21 0.17,-103.39 92.23 80
4 09/19/2019 20:22:52 -0.33,-104.27 -0.28,-104.19 11.08 80
5 09/22/2019 08:25:56 0.32,-104.20 0.46,-104.93 82.24 80
6 09/23/2019 08:04:32 0.32,-104.18 -0.55,-100.40 432.25 80
7 09/24/2019 20:26:29 -0.31,-104.23 -0.61,-105.71 168.15 80
8 09/25/2019 20:10:24 -0.31,-104.23 0.39,-101.18 348.21 80
9 09/27/2019 08:32:13 0.29,-104.18 0.79,-106.45 258.19 80




NCC Satellite Simultaneous Nadir Overpasses (SNOs) Prediction Service
